{"data":{"norad_id":65636,"epoch":"2026-09-20T21:02:41.562816Z","epoch_age_seconds":76165,"freshness":"FRESH","line1":"1 65636U 25210Q   26263.87686994  .00019708  00000+0  59280-3 0  9993","line2":"2 65636  53.1539 116.3068 0001782 289.4409  70.6401 15.34404696 57678","mean_motion":15.34404696,"eccentricity":0.0001782,"inclination_deg":53.1539,"raan_deg":116.3068,"arg_perigee_deg":289.4409,"mean_anomaly_deg":70.6401,"bstar":0.0005928,"rev_number":5767,"period_min":93.847470863058,"perigee_km":461.47024749748,"apogee_km":463.90831798465,"semimajor_km":6840.8262827411,"source":"CELESTRAK","updated_at":"2026-09-21T09:00:35.675434Z"}}